FW3031 Weather Reports


time (UTC)temp
C
wind
direction
speed
KPH
gust
KPH
rain 1hr
cm
rain 24hr
cm
rain mn
cm
humidity
%
barometer
mb
20260901063537 23 190 0.0 4.8 0.00 0.08 0.00 69 1017.2
20260901063106 23 0 0.0 6.4 0.00 0.08 0.00 69 1015.2
20260901063036 23 190 0.0 6.4 0.00 0.08 0.00 69 1017.2
20260901062535 23 190 1.6 6.4 0.00 0.08 0.00 69 1017.2
20260901062035 23 190 0.0 8.0 0.00 0.08 0.00 69 1017.2
20260901061609 23 190 1.6 6.4 0.00 0.08 0.00 69 1015.3
20260901061542 23 190 1.6 6.4 0.00 0.08 0.00 69 1017.3
20260901061034 23 190 3.2 6.4 0.00 0.08 0.00 69 1017.3
20260901060533 23 190 0.0 3.2 0.00 0.08 0.00 69 1017.3
20260901060111 23 0 0.0 3.2 0.00 0.08 0.00 68 1015.4
20260901060035 23 190 0.0 3.2 0.00 0.08 0.00 68 1017.3
20260901055531 23 190 0.0 4.8 0.00 0.15 0.08 68 1017.3
20260901055030 23 190 0.0 4.8 0.00 0.15 0.08 68 1017.2
20260901054602 23 0 1.6 6.4 0.00 0.13 0.08 68 1015.6
20260901054533 23 190 1.6 6.4 0.00 0.15 0.08 68 1017.4
20260901054031 23 190 0.0 4.8 0.00 0.15 0.08 68 1017.5
20260901053531 23 190 0.0 3.2 0.00 0.15 0.08 68 1017.6
20260901053107 23 0 0.0 12.9 0.00 0.13 0.08 67 1015.9
20260901053030 23 190 0.0 12.9 0.00 0.15 0.08 68 1017.7
20260901052529 23 190 0.0 12.9 0.00 0.15 0.08 68 1017.8
20260901052029 23 190 3.2 11.3 0.00 0.15 0.08 67 1017.9
20260901051607 23 190 1.6 16.1 0.00 0.13 0.08 67 1016.2
20260901051533 23 190 1.6 16.1 0.00 0.15 0.08 68 1018.1
20260901051029 23 190 1.6 16.1 0.00 0.15 0.08 69 1018.3
20260901050529 23 190 1.6 16.1 0.00 0.15 0.08 70 1018.3
20260901050104 23 190 6.4 20.9 0.00 0.13 0.08 70 1016.6
20260901050028 23 190 4.8 20.9 0.00 0.15 0.08 71 1018.4
20260901045527 24 190 4.8 20.9 0.00 0.15 0.08 69 1018.3
20260901045025 25 190 6.4 14.5 0.00 0.15 0.08 68 1018.1
20260901044630 25 190 3.2 8.0 0.00 0.13 0.08 70 1016.2
20260901044532 25 190 1.6 9.7 0.00 0.15 0.08 71 1017.9
20260901044025 25 190 3.2 6.4 0.00 0.15 0.08 71 1017.7
20260901043525 25 190 1.6 8.0 0.00 0.15 0.08 72 1017.6
20260901043103 25 190 0.0 4.8 0.00 0.13 0.08 71 1015.7
20260901043027 25 190 1.6 4.8 0.00 0.15 0.08 72 1017.4
20260901042524 25 190 0.0 4.8 0.00 0.15 0.08 72 1017.3
20260901042024 25 190 1.6 3.2 0.00 0.15 0.08 71 1017.3
20260901041559 26 0 0.0 0.0 0.00 0.13 0.08 70 1015.4
20260901041526 26 190 0.0 0.0 0.00 0.15 0.08 70 1017.3
20260901041024 25 190 0.0 0.0 0.00 0.15 0.08 70 1017.2
20260901040524 26 190 0.0 3.2 0.00 0.15 0.08 70 1017.0
20260901040115 26 0 0.0 3.2 0.00 0.13 0.08 69 1014.9
20260901040030 26 190 0.0 3.2 0.00 0.15 0.08 70 1016.8
20260901035526 26 190 0.0 3.2 0.00 0.15 0.08 69 1016.8
20260901035024 26 190 0.0 4.8 0.00 0.15 0.08 69 1016.7
20260901034603 26 0 0.0 9.7 0.00 0.13 0.08 68 1014.6
20260901034530 26 190 0.0 9.7 0.00 0.15 0.08 69 1016.6
20260901034023 26 190 3.2 9.7 0.00 0.15 0.08 68 1016.5
20260901033523 26 190 0.0 6.4 0.00 0.15 0.08 69 1016.4
20260901033100 26 190 1.6 6.4 0.00 0.13 0.08 68 1014.4
20260901033023 26 190 1.6 6.4 0.00 0.15 0.08 69 1016.3
20260901032523 26 190 1.6 6.4 0.00 0.15 0.08 69 1016.2
20260901032023 26 190 0.0 0.0 0.00 0.15 0.08 69 1016.2
20260901031605 26 0 0.0 0.0 0.00 0.13 0.08 68 1014.3
20260901031542 26 190 0.0 0.0 0.00 0.15 0.08 69 1016.1
20260901031022 26 190 0.0 1.6 0.00 0.15 0.08 69 1016.0
20260901030522 26 190 0.0 1.6 0.00 0.15 0.08 68 1015.8
20260901030105 26 0 0.0 0.0 0.00 0.13 0.08 68 1014.0
20260901030024 26 190 0.0 0.0 0.00 0.15 0.08 68 1015.8
20260901025522 26 190 0.0 0.0 0.00 0.15 0.08 67 1015.7
20260901025022 26 190 0.0 0.0 0.00 0.15 0.08 67 1015.6
20260901024559 26 0 0.0 1.6 0.00 0.13 0.08 66 1013.6
20260901024526 26 190 0.0 0.0 0.00 0.15 0.08 67 1015.4
20260901024022 26 190 0.0 1.6 0.00 0.15 0.08 67 1015.3
20260901023526 26 190 0.0 0.0 0.00 0.15 0.08 66 1015.2
20260901023102 26 0 0.0 3.2 0.00 0.13 0.08 66 1013.2
20260901023024 26 190 0.0 0.0 0.00 0.15 0.08 66 1015.1
20260901022525 26 190 0.0 3.2 0.00 0.15 0.08 66 1015.0
20260901022023 26 190 0.0 3.2 0.00 0.15 0.08 67 1014.9
20260901021605 26 0 0.0 4.8 0.00 0.13 0.08 66 1012.9
20260901021521 26 190 0.0 4.8 0.00 0.15 0.08 66 1014.8
20260901021021 26 190 1.6 4.8 0.00 0.15 0.08 65 1014.7
20260901020521 26 190 0.0 3.2 0.00 0.15 0.08 64 1014.6
20260901020020 26 190 0.0 3.2 0.00 0.15 0.08 64 1014.5
20260901015521 26 190 0.0 4.8 0.00 0.15 0.08 63 1014.4
20260901015020 26 190 0.0 4.8 0.00 0.15 0.08 62 1014.2
20260901014601 27 190 1.6 3.2 0.00 0.13 0.08 61 1012.2
20260901014520 27 190 1.6 3.2 0.00 0.15 0.08 62 1014.1
20260901014024 27 190 0.0 1.6 0.00 0.15 0.08 61 1013.9
20260901013524 27 190 0.0 3.2 0.00 0.15 0.08 61 1013.9
20260901013114 27 0 0.0 4.8 0.00 0.13 0.08 60 1012.0
20260901013020 27 190 0.0 4.8 0.00 0.15 0.08 60 1013.9
20260901012520 27 190 0.0 4.8 0.00 0.15 0.08 60 1013.7
20260901012022 27 190 0.0 3.2 0.00 0.15 0.08 60 1013.6
20260901011602 27 0 0.0 6.4 0.00 0.13 0.08 61 1011.8
20260901011519 27 190 0.0 1.6 0.00 0.15 0.08 61 1013.5
20260901011019 27 190 0.0 6.4 0.00 0.15 0.08 61 1013.4
20260901010519 27 190 1.6 6.4 0.00 0.15 0.08 60 1013.3
20260901010113 27 0 0.0 0.0 0.00 0.13 0.08 61 1011.6
20260901010032 27 190 0.0 0.0 0.00 0.15 0.08 61 1013.3
20260901005518 27 190 0.0 0.0 0.00 0.15 0.08 61 1013.2
20260901005022 27 190 0.0 0.0 0.00 0.15 0.08 60 1013.2
20260901004608 28 0 0.0 3.2 0.00 0.13 0.08 60 1011.5
20260901004518 27 190 0.0 3.2 0.00 0.15 0.08 60 1013.1
20260901004018 28 190 0.0 3.2 0.00 0.15 0.08 60 1013.0
20260901003517 28 190 0.0 3.2 0.00 0.15 0.08 59 1012.9
20260901003100 28 0 0.0 6.4 0.00 0.13 0.08 59 1011.3
20260901003018 28 190 0.0 6.4 0.00 0.15 0.08 59 1012.8
20260901002517 28 190 1.6 6.4 0.00 0.15 0.08 59 1012.7
20260901002021 28 190 1.6 6.4 0.00 0.15 0.08 58 1012.7
20260901001603 28 190 1.6 8.0 0.00 0.13 0.08 58 1011.1
20260901001524 28 190 1.6 8.0 0.00 0.15 0.08 58 1012.7
20260901001017 28 190 1.6 9.7 0.00 0.15 0.08 58 1012.6
20260901000521 28 190 4.8 9.7 0.00 0.15 0.08 57 1012.5
20260901000105 29 190 3.2 8.0 0.00 0.13 0.08 56 1010.9
20260901000017 28 190 3.2 8.0 0.00 0.15 0.08 56 1012.5
20260831235517 29 190 1.6 8.0 0.00 0.15 0.08 57 1012.5
20260831235016 29 190 1.6 8.0 0.00 0.15 0.08 57 1012.5
20260831234605 29 0 0.0 8.0 0.00 0.13 0.08 56 1010.9
20260831234517 29 190 0.0 8.0 0.00 0.15 0.08 56 1012.3
20260831234016 29 190 3.2 11.3 0.00 0.15 0.08 55 1012.4
20260831233519 29 190 3.2 11.3 0.00 0.15 0.08 55 1012.3
20260831233059 30 0 3.2 9.7 0.00 0.13 0.08 53 1010.8
20260831233017 30 190 3.2 9.7 0.00 0.15 0.08 54 1012.2
20260831232515 30 190 3.2 9.7 0.00 0.15 0.08 53 1012.2
20260831232015 30 190 1.6 14.5 0.00 0.15 0.08 54 1012.2
20260831231604 30 190 8.0 14.5 0.00 0.13 0.08 53 1010.7
20260831231515 30 190 6.4 14.5 0.00 0.15 0.08 53 1012.2
20260831231014 30 190 1.6 9.7 0.00 0.15 0.08 54 1012.1
20260831230514 30 190 1.6 9.7 0.00 0.15 0.08 54 1012.1
20260831230106 30 190 4.8 12.9 0.00 0.13 0.08 53 1010.7
20260831230014 30 190 4.8 12.9 0.00 0.15 0.08 53 1012.1
20260831225512 30 190 6.4 12.9 0.00 0.15 0.08 53 1012.1
20260831225011 30 190 3.2 9.7 0.00 0.15 0.08 53 1012.1
20260831224602 30 190 3.2 9.7 0.00 0.13 0.08 54 1010.7
20260831224510 30 190 1.6 9.7 0.00 0.15 0.08 54 1012.1
20260831224009 30 190 4.8 9.7 0.00 0.15 0.08 54 1012.1
20260831223508 29 190 1.6 9.7 0.00 0.15 0.08 57 1012.1
20260831223105 29 190 4.8 14.5 0.00 0.13 0.08 56 1010.9
20260831223007 29 190 3.2 9.7 0.00 0.15 0.08 57 1012.1
20260831222607 29 190 1.6 14.5 0.00 0.15 0.08 59 1012.1
20260831222006 29 190 3.2 14.5 0.00 0.15 0.08 58 1012.3
20260831221629 29 190 3.2 9.7 0.00 0.13 0.08 58 1011.0
20260831221518 29 190 1.6 9.7 0.00 0.15 0.08 59 1012.3
20260831221004 29 190 3.2 9.7 0.00 0.15 0.08 59 1012.3
20260831220505 28 190 1.6 9.7 0.00 0.15 0.08 61 1012.3
20260831220110 28 190 4.8 9.7 0.00 0.13 0.08 60 1011.1
20260831220004 28 190 4.8 9.7 0.00 0.15 0.08 60 1012.4
20260831215503 28 190 3.2 9.7 0.00 0.15 0.08 61 1012.4
20260831215001 28 190 1.6 8.0 0.00 0.15 0.08 60 1012.5
20260831214601 28 0 3.2 8.0 0.00 0.13 0.08 61 1011.3
20260831214100 28 190 1.6 8.0 0.00 0.15 0.08 61 1012.6
20260831214000 28 190 1.6 8.0 0.00 0.15 0.08 62 1012.5
20260831213559 28 190 3.2 8.0 0.00 0.15 0.08 60 1012.6
20260831213103 28 190 1.6 9.7 0.00 0.13 0.08 60 1011.5
20260831213059 28 190 1.6 8.0 0.00 0.15 0.08 60 1012.8
20260831212559 28 190 3.2 9.7 0.00 0.15 0.08 60 1012.8
20260831212058 28 190 3.2 6.4 0.00 0.15 0.08 62 1013.0
20260831211609 28 190 3.2 9.7 0.00 0.15 0.08 60 1013.1
20260831211605 28 190 3.2 11.3 0.00 0.13 0.08 59 1011.7
20260831211056 28 190 3.2 11.3 0.00 0.15 0.08 61 1013.1
20260831210556 28 190 3.2 11.3 0.00 0.15 0.08 60 1013.2
20260831210104 28 190 4.8 11.3 0.00 0.13 0.08 59 1011.9
20260831210055 28 190 3.2 11.3 0.00 0.15 0.08 59 1013.3
20260831210025 28 190 3.2 11.3 0.00 0.15 0.08 59 1013.3
20260831205554 29 190 3.2 9.7 0.00 0.15 0.08 59 1013.4
20260831205054 28 190 1.6 8.0 0.00 0.15 0.08 59 1013.5
20260831204606 29 190 0.0 9.7 0.00 0.13 0.08 58 1012.1
20260831204553 29 190 0.0 9.7 0.00 0.15 0.08 58 1013.5
20260831204052 29 190 4.8 9.7 0.00 0.15 0.08 58 1013.6
20260831203550 29 190 3.2 9.7 0.00 0.15 0.08 59 1013.8
20260831203137 28 190 4.8 9.7 0.00 0.13 0.08 58 1012.4
20260831203050 28 190 4.8 9.7 0.00 0.15 0.08 58 1013.8
20260831202548 28 190 1.6 9.7 0.00 0.15 0.08 59 1014.0
20260831202048 29 190 4.8 9.7 0.00 0.15 0.08 58 1014.1
20260831201608 29 190 0.0 6.4 0.00 0.13 0.08 58 1012.7
20260831201552 29 190 0.0 6.4 0.00 0.15 0.08 58 1014.2
20260831201048 28 190 1.6 6.4 0.00 0.15 0.08 59 1014.3
20260831200546 28 190 0.0 9.7 0.00 0.15 0.08 59 1014.3
20260831200141 28 190 1.6 11.3 0.00 0.13 0.08 59 1013.0
20260831200045 28 190 1.6 11.3 0.00 0.15 0.08 60 1014.4
20260831195543 28 190 3.2 11.3 0.00 0.15 0.08 58 1014.6
20260831195043 28 190 1.6 9.7 0.00 0.15 0.08 59 1014.6
20260831194620 28 190 3.2 9.7 0.00 0.13 0.08 59 1013.3
20260831194615 28 190 1.6 9.7 0.00 0.15 0.08 61 1014.7
20260831194040 28 190 3.2 11.3 0.00 0.15 0.08 61 1014.9
20260831193540 28 190 3.2 11.3 0.00 0.15 0.08 61 1014.9
20260831193102 28 0 3.2 9.7 0.00 0.13 0.08 61 1013.6
20260831193039 28 190 0.0 9.7 0.00 0.15 0.08 61 1015.0
20260831192538 28 190 4.8 9.7 0.00 0.15 0.08 61 1015.1
20260831192037 28 190 1.6 14.5 0.00 0.15 0.08 62 1015.2
20260831191619 28 190 4.8 14.5 0.00 0.13 0.08 62 1013.8
20260831191538 28 190 6.4 14.5 0.00 0.15 0.08 62 1015.3
20260831191036 28 190 3.2 11.3 0.00 0.15 0.08 61 1015.4
20260831190536 28 190 1.6 11.3 0.00 0.15 0.08 62 1015.5
20260831190109 28 190 6.4 14.5 0.00 0.13 0.08 62 1014.1
20260831190039 28 190 6.4 12.9 0.00 0.15 0.08 62 1015.5
20260831185535 28 190 4.8 14.5 0.00 0.15 0.08 62 1015.6
20260831185034 28 190 6.4 14.5 0.00 0.15 0.08 62 1015.7
20260831184600 28 190 3.2 11.3 0.00 0.13 0.08 62 1014.3
20260831184543 28 190 3.2 11.3 0.00 0.15 0.08 62 1015.9
20260831184033 28 190 3.2 11.3 0.00 0.15 0.08 62 1016.0
20260831183533 27 190 4.8 12.9 0.00 0.15 0.08 63 1016.1
20260831183109 28 190 6.4 14.5 0.00 0.13 0.08 61 1014.7
20260831183033 27 190 3.2 14.5 0.00 0.15 0.08 61 1016.2
20260831182533 28 190 8.0 14.5 0.00 0.15 0.08 61 1016.2
20260831182032 28 190 0.0 9.7 0.00 0.15 0.08 61 1016.3
20260831181606 28 190 0.0 9.7 0.00 0.13 0.08 60 1014.9
20260831181533 28 190 1.6 6.4 0.00 0.15 0.08 61 1016.3
20260831181031 28 190 0.0 9.7 0.00 0.15 0.08 61 1016.3
20260831180531 28 190 1.6 9.7 0.00 0.15 0.08 61 1016.4
20260831180113 28 0 0.0 9.7 0.00 0.13 0.08 61 1015.2
20260831180032 28 190 0.0 4.8 0.00 0.15 0.08 61 1016.4
20260831175531 28 190 1.6 9.7 0.00 0.15 0.08 61 1016.5
20260831175031 28 190 3.2 9.7 0.00 0.15 0.08 60 1016.6
20260831174603 28 0 0.0 4.8 0.00 0.13 0.08 61 1015.2
20260831174547 28 190 0.0 4.8 0.00 0.15 0.08 61 1016.6
20260831174034 28 190 1.6 4.8 0.00 0.15 0.08 60 1016.6
20260831173530 28 190 1.6 9.7 0.00 0.15 0.08 61 1016.7
20260831173108 28 190 1.6 8.0 0.00 0.13 0.08 60 1015.3
20260831173029 27 190 0.0 8.0 0.00 0.15 0.08 61 1016.7
20260831172527 27 190 0.0 8.0 0.00 0.15 0.08 63 1016.7
20260831172026 27 190 3.2 8.0 0.00 0.15 0.08 63 1016.8
20260831171605 27 0 0.0 8.0 0.00 0.13 0.08 63 1015.5
20260831171539 27 190 0.0 8.0 0.00 0.15 0.08 64 1016.8
20260831171024 27 190 1.6 8.0 0.00 0.15 0.08 65 1016.8
20260831170524 27 190 1.6 8.0 0.00 0.15 0.08 67 1016.8
20260831170103 26 0 1.6 6.4 0.00 0.13 0.08 67 1015.6
20260831170054 26 190 1.6 6.4 0.00 0.15 0.08 67 1016.9
20260831165522 26 190 0.0 6.4 0.00 0.15 0.08 68 1017.0
20260831165020 26 190 0.0 8.0 0.00 0.15 0.08 68 1017.0
20260831164602 26 190 3.2 9.7 0.00 0.13 0.08 67 1015.8
20260831164524 26 190 0.0 8.0 0.00 0.15 0.08 68 1017.1
20260831164022 26 190 4.8 9.7 0.00 0.15 0.08 69 1017.1
20260831163520 26 190 3.2 9.7 0.00 0.15 0.08 69 1017.2
20260831163103 26 190 3.2 8.0 0.00 0.13 0.08 69 1015.8
20260831163019 26 190 3.2 9.7 0.00 0.15 0.08 70 1017.2
20260831162521 26 190 3.2 8.0 0.00 0.15 0.08 67 1017.2
20260831162018 26 190 0.0 6.4 0.00 0.15 0.08 68 1017.3
20260831161611 26 0 1.6 6.4 0.00 0.13 0.08 68 1015.9
20260831161518 26 190 0.0 6.4 0.00 0.15 0.08 69 1017.3
20260831161017 26 190 1.6 6.4 0.00 0.15 0.08 68 1017.4
20260831160517 26 190 0.0 3.2 0.00 0.15 0.08 68 1017.4
20260831160109 26 0 0.0 0.0 0.00 0.13 0.08 67 1016.0
20260831160028 26 190 0.0 0.0 0.00 0.15 0.08 70 1017.5
20260831155517 25 190 0.0 0.0 0.00 0.15 0.08 69 1017.6
20260831155014 25 190 0.0 0.0 0.00 0.15 0.08 70 1017.8
20260831154631 25 0 0.0 4.8 0.00 0.13 0.08 68 1016.2
20260831154513 25 190 0.0 4.8 0.00 0.15 0.08 69 1017.8
20260831154013 25 190 1.6 4.8 0.00 0.15 0.08 69 1017.8
20260831153510 25 190 0.0 6.4 0.00 0.15 0.08 69 1017.8
20260831153111 25 0 3.2 6.4 0.00 0.13 0.08 70 1016.3
20260831153011 25 190 1.6 6.4 0.00 0.15 0.08 69 1017.8
20260831152509 25 190 0.0 3.2 0.00 0.15 0.08 71 1017.8
20260831152011 25 190 0.0 4.8 0.00 0.15 0.08 74 1017.9
20260831151601 24 0 1.6 4.8 0.00 0.13 0.08 74 1016.2
20260831151510 24 190 0.0 4.8 0.00 0.15 0.08 74 1018.0
20260831151007 24 190 0.0 4.8 0.00 0.15 0.08 75 1018.0
20260831150505 23 190 1.6 4.8 0.00 0.15 0.08 74 1018.0
20260831150113 23 0 0.0 4.8 0.00 0.13 0.08 75 1016.2
20260831150004 23 190 0.0 4.8 0.00 0.15 0.08 75 1018.1
20260831145502 23 190 0.0 0.0 0.00 0.15 0.08 76 1018.0
20260831145003 23 190 0.0 3.2 0.00 0.15 0.08 76 1018.0
20260831144607 23 0 0.0 3.2 0.00 0.13 0.08 77 1016.1
20260831144600 23 190 0.0 3.2 0.00 0.15 0.08 77 1018.0
20260831144059 23 190 0.0 0.0 0.00 0.15 0.08 79 1017.9
20260831143558 23 190 0.0 0.0 0.00 0.15 0.08 80 1017.8
20260831143101 22 0 0.0 0.0 0.00 0.13 0.08 81 1016.0
20260831143058 22 190 0.0 0.0 0.00 0.15 0.08 81 1017.8
20260831142601 22 190 0.0 3.2 0.00 0.15 0.08 81 1017.9
20260831142057 22 190 0.0 3.2 0.00 0.15 0.08 83 1017.8
20260831141610 22 0 0.0 0.0 0.00 0.13 0.08 83 1016.0
20260831141559 22 190 0.0 1.6 0.00 0.15 0.08 84 1017.8
20260831141057 21 190 0.0 0.0 0.00 0.15 0.08 86 1017.8
20260831140556 21 190 0.0 0.0 0.00 0.15 0.08 87 1017.7
20260831140106 21 0 0.0 0.0 0.00 0.13 0.08 88 1015.8
20260831140057 21 190 0.0 0.0 0.00 0.15 0.08 88 1017.7
20260831135556 21 190 0.0 0.0 0.00 0.15 0.08 89 1017.7
20260831135056 20 190 0.0 3.2 0.00 0.15 0.08 90 1017.6
20260831134607 20 0 0.0 3.2 0.00 0.13 0.08 89 1015.7
20260831134556 20 190 0.0 3.2 0.00 0.15 0.08 90 1017.7
20260831134056 20 190 0.0 3.2 0.00 0.15 0.08 90 1017.7
20260831133553 20 190 0.0 3.2 0.00 0.15 0.08 90 1017.5
20260831133103 20 190 0.0 4.8 0.00 0.13 0.08 90 1015.6
20260831133056 20 190 0.0 3.2 0.00 0.15 0.08 91 1017.5
20260831132556 20 190 0.0 4.8 0.00 0.15 0.08 92 1017.3
20260831132057 20 190 1.6 4.8 0.00 0.15 0.08 91 1017.3
20260831131610 20 0 1.6 4.8 0.00 0.13 0.08 91 1015.3
20260831131552 20 190 0.0 4.8 0.00 0.15 0.08 91 1017.1
20260831131050 20 190 0.0 4.8 0.00 0.15 0.08 91 1017.1
20260831130553 20 190 0.0 1.6 0.00 0.15 0.08 91 1016.9
20260831130109 20 0 0.0 0.0 0.00 0.13 0.08 90 1015.0
20260831130050 20 190 0.0 0.0 0.00 0.15 0.08 91 1016.8
20260831125549 20 190 0.0 0.0 0.00 0.15 0.08 91 1016.8
20260831125049 20 190 0.0 0.0 0.00 0.15 0.08 91 1016.8
20260831124603 20 0 0.0 0.0 0.00 0.13 0.08 91 1015.0
20260831124548 20 190 0.0 0.0 0.00 0.15 0.08 91 1016.8
20260831124048 20 190 0.0 0.0 0.00 0.15 0.08 91 1016.8
20260831123546 20 190 0.0 1.6 0.00 0.15 0.08 92 1016.9
20260831123102 20 0 0.0 1.6 0.00 0.13 0.08 91 1015.0
20260831123047 20 190 0.0 1.6 0.00 0.15 0.08 92 1016.8
20260831122545 20 190 0.0 0.0 0.00 0.15 0.08 91 1016.7
20260831122046 20 190 0.0 0.0 0.00 0.15 0.08 91 1016.8
20260831121608 20 0 0.0 0.0 0.00 0.13 0.08 90 1015.0
20260831121545 20 190 0.0 0.0 0.00 0.15 0.08 91 1016.8
20260831121049 20 190 0.0 0.0 0.00 0.15 0.08 91 1016.7
20260831120543 20 190 0.0 0.0 0.00 0.15 0.08 90 1016.6
20260831120149 20 0 0.0 0.0 0.00 0.13 0.08 90 1014.7
20260831120043 20 190 0.0 0.0 0.00 0.15 0.08 91 1016.5
20260831115541 20 190 0.0 0.0 0.00 0.15 0.08 90 1016.4
20260831115041 20 190 0.0 0.0 0.00 0.15 0.08 90 1016.4
20260831114610 20 0 0.0 0.0 0.00 0.13 0.08 89 1014.5
20260831114541 20 190 0.0 0.0 0.00 0.15 0.08 90 1016.3
20260831114041 20 190 0.0 0.0 0.00 0.15 0.08 89 1016.3
20260831113541 21 190 0.0 0.0 0.00 0.15 0.08 89 1016.2
20260831113103 21 0 0.0 0.0 0.00 0.13 0.08 89 1014.5
20260831113043 21 190 0.0 0.0 0.00 0.15 0.08 89 1016.2
20260831112540 21 190 0.0 0.0 0.00 0.15 0.08 89 1016.2
20260831112039 21 190 0.0 0.0 0.00 0.15 0.08 89 1016.1
20260831111606 21 0 0.0 0.0 0.00 0.13 0.08 89 1014.5
20260831111540 21 190 0.0 0.0 0.00 0.15 0.08 89 1016.1
20260831111039 21 190 0.0 0.0 0.00 0.15 0.08 90 1016.1
20260831110542 21 190 0.0 0.0 0.00 0.15 0.08 89 1016.1
20260831110111 21 0 0.0 0.0 0.00 0.13 0.08 88 1014.5
20260831110039 21 190 0.0 0.0 0.00 0.15 0.08 89 1016.1
20260831105537 21 190 0.0 0.0 0.00 0.15 0.08 89 1016.2
20260831105039 21 190 0.0 1.6 0.00 0.15 0.08 89 1016.2
20260831104607 21 0 0.0 1.6 0.00 0.13 0.08 89 1014.5
20260831104543 21 190 0.0 1.6 0.00 0.15 0.08 90 1016.2
20260831104036 21 190 0.0 1.6 0.00 0.15 0.08 90 1016.2
20260831103539 21 190 0.0 0.0 0.00 0.15 0.08 88 1016.1
20260831103122 21 0 0.0 0.0 0.00 0.13 0.08 87 1014.3
20260831103055 21 190 0.0 0.0 0.00 0.15 0.08 87 1016.0
20260831102536 21 190 0.0 0.0 0.00 0.15 0.08 86 1016.0
20260831102036 21 190 0.0 0.0 0.00 0.15 0.08 86 1016.0
20260831101611 21 0 0.0 0.0 0.00 0.13 0.08 86 1014.3
20260831101539 21 190 0.0 0.0 0.00 0.15 0.08 86 1016.1
20260831101037 21 190 0.0 0.0 0.00 0.15 0.08 87 1016.2
20260831100537 21 190 0.0 0.0 0.00 0.15 0.08 87 1016.3
20260831100120 21 0 0.0 0.0 0.00 0.13 0.08 87 1014.7
20260831100039 21 190 0.0 0.0 0.00 0.15 0.08 88 1016.4
20260831095535 21 190 0.0 0.0 0.00 0.15 0.08 89 1016.5
20260831095035 21 190 0.0 0.0 0.00 0.15 0.08 89 1016.5
20260831094610 21 0 0.0 0.0 0.00 0.13 0.08 89 1014.9
20260831094534 21 190 0.0 0.0 0.00 0.15 0.08 89 1016.5
20260831094034 21 190 0.0 0.0 0.00 0.15 0.08 89 1016.5
20260831093533 21 190 0.0 0.0 0.00 0.15 0.08 88 1016.5
20260831093111 21 0 0.0 0.0 0.00 0.13 0.08 89 1014.9
20260831093034 21 190 0.0 0.0 0.00 0.15 0.08 89 1016.6
20260831092532 21 190 0.0 0.0 0.00 0.15 0.08 88 1016.5
20260831092032 21 190 0.0 0.0 0.00 0.15 0.08 89 1016.5
20260831091611 21 0 0.0 0.0 0.00 0.13 0.08 88 1014.8
20260831091532 21 190 0.0 0.0 0.00 0.15 0.08 89 1016.4
20260831091032 21 190 0.0 0.0 0.00 0.15 0.08 89 1016.4
20260831090532 21 190 0.0 3.2 0.00 0.15 0.08 88 1016.3
20260831090113 21 0 0.0 3.2 0.00 0.13 0.08 86 1014.7
20260831090032 21 190 0.0 3.2 0.00 0.15 0.08 87 1016.3
20260831085532 21 190 0.0 3.2 0.00 0.15 0.08 86 1016.3
20260831085034 21 190 0.0 3.2 0.00 0.15 0.08 88 1016.3
20260831084608 21 0 0.0 0.0 0.00 0.13 0.08 87 1014.5
20260831084532 21 190 0.0 0.0 0.00 0.15 0.08 88 1016.2
20260831084030 21 190 0.0 0.0 0.00 0.15 0.08 89 1016.1
20260831083530 21 190 0.0 0.0 0.00 0.15 0.08 88 1016.0
20260831083106 21 0 0.0 0.0 0.00 0.13 0.08 88 1014.4
20260831083031 21 190 0.0 0.0 0.00 0.15 0.08 89 1016.0
20260831082530 21 190 0.0 0.0 0.00 0.15 0.08 88 1015.9
20260831082030 21 190 0.0 0.0 0.00 0.15 0.08 88 1016.0
20260831081610 21 0 0.0 0.0 0.00 0.13 0.08 88 1014.5
20260831081530 21 190 0.0 0.0 0.00 0.15 0.08 89 1016.1
20260831081032 21 190 0.0 0.0 0.00 0.15 0.08 88 1016.0
20260831080530 21 190 0.0 1.6 0.00 0.15 0.08 88 1015.9
20260831080107 21 0 0.0 1.6 0.00 0.13 0.08 87 1014.4
20260831080047 21 190 0.0 1.6 0.00 0.15 0.08 87 1016.0
20260831075529 21 190 0.0 1.6 0.00 0.15 0.08 88 1016.0
20260831075029 21 190 0.0 1.6 0.00 0.15 0.08 87 1015.9
20260831074608 21 0 0.0 1.6 0.00 0.13 0.08 86 1014.5
20260831074528 21 190 0.0 1.6 0.00 0.15 0.08 87 1016.0
20260831074028 21 190 0.0 1.6 0.00 0.15 0.08 87 1016.1
20260831073526 21 190 0.0 0.0 0.00 0.15 0.08 86 1016.1
20260831073111 21 0 0.0 1.6 0.00 0.13 0.08 85 1014.4
20260831073031 21 190 0.0 0.0 0.00 0.15 0.08 86 1016.0
20260831072524 21 190 0.0 1.6 0.00 0.15 0.08 83 1015.9
20260831072030 21 190 0.0 3.2 0.03 0.15 0.08 86 1015.8
20260831071618 21 190 0.0 3.2 0.00 0.13 0.08 87 1014.4
20260831071523 21 190 0.0 3.2 0.03 0.15 0.08 89 1015.9
20260831071023 21 190 0.0 0.0 0.05 0.15 0.08 89 1016.0
20260831070524 21 190 0.0 0.0 0.05 0.15 0.08 89 1016.0
20260831070111 21 0 0.0 0.0 0.05 0.13 0.08 87 1014.5
20260831070023 21 190 0.0 0.0 0.05 0.15 0.08 88 1016.2
20260831065521 21 190 0.0 0.0 0.13 0.15 0.08 87 1016.2
20260831065022 21 190 0.0 0.0 0.15 0.15 0.08 87 1016.1
20260831064604 22 0 0.0 0.0 0.13 0.13 0.08 87 1014.4
20260831064521 22 190 0.0 0.0 0.15 0.15 0.08 87 1016.1
20260831064020 21 190 0.0 1.6 0.15 0.15 0.08 87 1016.0